Location: Mahannah Oil Field
(37.4664°N, 96.6003°W)
Time: 00:20:13
(UTC+00:00)

Tiros 1 despin weight - Pass Details

Date: 01 February 2021
Orbit: 593 x 642 km, 48.2° (Epoch: 25 February)

Event Time Altitude Azimuth Distance (km) Brightness Sun altitude
Rises 15:24:04 0° 186° (S) 2,923 ? 18.7°
Reaches altitude 10° 15:27:25 10° 161° (SSE) 2,014 ? 19.2°
Maximum altitude 15:29:49 14° 130° (SE) 1,756 ? 19.6°
Drops below altitude 10° 15:32:13 10° 99° (E) 2,010 ? 20.0°
Sets 15:35:32 0° 74° (ENE) 2,912 ? 20.4°
